www.pogodaiklimat.ru

Погода и климат >> Архив погоды >> Индонезия >> Golea


ПОГОДА в Golea

  • Прогноз погоды в Golea
  • Монитор погоды в Golea
  • Климат города

АРХИВ ПОГОДЫ в Golea

Время (UTC), дата Ветер
(напр.,м/с)
 
Видим.   Явления Облачность Т
(С)
Тd
(С)
f
(%)
Тe
(С)
Тes
(С)
Комфортность P
(гПа)
Po
(гПа)
Тmin
(С)
Tmax
(С)
R
(мм)
R24
(мм)
S
(см)
12 10.11 ЮЗ 1 10 км 6/3 540 м
[Cu med, cong Ac trans Ci fib]
+26.2 +25.0 93 +37 +37 очень
душно
1008.7 1004.6 +34.4
15 10.11 штиль 0 10 км 6/4 540 м
[Cu med, cong Ac trans Ci fib]
+24.8 +24.0 95 +34 +34 очень
душно
1008.5 1004.4
18 10.11 штиль 0 10 км 6/4 540 м
[Cu med, cong Ac trans Ci fib]
+23.2 +22.8 98 +32 +32 очень
душно
1007.3 1003.2
21 10.11 штиль 0 10 км 6/3 540 м
[Cu med, cong Ac trans Ci fib]
+22.8 +22.1 96 +31 +31 очень
душно
1007.6 1003.5
00 11.11 штиль 0 50 км ?/? +30.0 +25.7 78 +45 +45 опасность
перегрева
1008.6 1004.5 +23.6
03 11.11 З 4 10 км 8/5 540 м
[Cu med, cong Ac trans Ci fib]
+33.1 +26.4 68 +50 +55 опасность
перегрева
1007.6 1003.5
06 11.11 З 2 8000 м в посл. час дождь 9/5 500 м
[Cb cap Ac As Ci sp]
+28.8 +26.8 89 +45 +49 опасность
перегрева
1006.2 1002.1 0.8
09 11.11 штиль 0 10 км 9/4 540 м
[Cu med, cong Ac trans Ci sp]
+28.8 +26.1 85 +43 +43 опасность
перегрева
1006.8 1002.7
12 11.11 штиль 0 6000 м слабый дождь 10/5 500 м
[Cb cap As op Ci sp]
+25.8 +25.4 98 +38 +38 очень
душно
1008.7 1004.6 +33.2 6
15 11.11 ЮЗ 1 8000 м зарница {дождь} 9/5 500 м
[Cb cap Ac cuf Ci fib]
+24.0 +23.9 99 +33 +33 очень
душно
1009.0 1004.9 6
18 11.11 З 2 8000 м 9/5 500 м
[Cb cap Ac cuf Ci fib]
+24.0 +23.6 98 +33 +33 очень
душно
1007.5 1003.4 6
21 11.11 штиль 0 10 км 9/5 540 м
[Cu med, cong Ac trans Ci fib]
+24.0 +23.9 99 +33 +33 очень
душно
1007.8 1003.7
00 12.11 З 4 10 км 9/5 540 м
[Cu med, cong Ac trans Ci fib]
+28.4 +25.5 84 +42 +43 опасность
перегрева
1009.3 1005.2 +24.2 13
03 12.11 Ю 3 10 км 9/5 540 м
[Cu med, cong Ac trans Ci fib]
+31.8 +25.6 70 +47 +52 опасность
перегрева
1007.7 1003.6
06 12.11 З 3 10 км 8/5 540 м
[Cu med, cong Ac trans Ci fib]
+31.2 +26.0 74 +47 +50 опасность
перегрева
1005.7 1001.6
09 12.11 ЮЗ 2 10 км 6/4 540 м
[Cu med, cong Ac trans Ci fib]
+29.6 +25.9 81 +44 +45 опасность
перегрева
1006.1 1002.0
12 12.11 ЮЗ 2 10 км 8/4 540 м
[Cu med, cong Ac trans Ci fib]
+25.9 +25.1 95 +37 +37 очень
душно
1008.2 1004.1 +33.7
15 12.11 штиль 0 10 км 8/3 540 м
[Cu med, cong Ac trans Ci fib]
+24.7 +24.2 97 +34 +34 очень
душно
1007.8 1003.7
18 12.11 штиль 0 10 км 6/3 540 м
[Cu med, cong Ac trans Ci fib]
+23.8 +23.4 98 +32 +32 очень
душно
1006.5 1002.4
21 12.11 штиль 0 10 км 6/3 540 м
[Cu med, cong Ac trans Ci fib]
+23.0 +22.6 98 +32 +32 очень
душно
1007.3 1003.2
00 13.11 ЮЗ 4 10 км 8/1 540 м
[Cu med, cong Ac trans Ci fib]
+29.0 +24.7 78 +41 +44 опасность
перегрева
1008.7 1004.6 +20.0
03 13.11 З 4 10 км 6/4 540 м
[Cu med, cong Ac trans Ci sp]
+33.4 +26.1 66 +50 +56 опасность
перегрева
1007.4 1003.3
06 13.11 В 2 10 км 9/4 540 м
[Cu med, cong Ac trans Ci sp]
+32.0 +26.7 74 +49 +53 опасность
перегрева
1005.3 1001.2
09 13.11 З 2 10 км 8/1 540 м
[Cu med, cong Ac trans Ci sp]
+30.1 +26.3 80 +46 +46 опасность
перегрева
1005.7 1001.6
12 13.11 штиль 0 10 км 8/1 540 м
[Cu med, cong Ac trans Ci fib]
+26.6 +24.1 86 +37 +37 очень
душно
1008.1 1004.0 +34.2
15 13.11 штиль 0 10 км 5/1 540 м
[Cu med, cong Ac trans Ci fib]
+24.8 +24.3 97 +34 +34 очень
душно
1008.0 1003.9
18 13.11 штиль 0 10 км 4/1 540 м
[Cu med, cong Ac trans Ci fib]
+23.8 +23.4 98 +32 +32 очень
душно
1006.6 1002.5
21 13.11 штиль 0 10 км 4/1 540 м
[Cu med, cong Ac trans Ci fib]
+22.8 +22.4 98 +31 +31 очень
душно
1008.2 1004.1
00 14.11 штиль 0 10 км 6/3 540 м
[Cu med, cong Ci fib]
+28.0 +24.8 83 +40 +46 очень
душно
1009.4 1005.3 +22.8
03 14.11 В 2 10 км 6/5 540 м
[Cu med, cong Ac trans Ci fib]
+32.6 +25.3 66 +47 +55 опасность
перегрева
1008.1 1004.0
06 14.11 З 2 8000 м осадки на расстоянии 8/5 500 м
[Cb cap Ac trans Ci fib]
+30.3 +25.0 73 +43 +48 опасность
перегрева
1006.8 1002.7
09 14.11 штиль 0 10 км {гроза} 8/3 540 м
[Cu med, cong Ac trans Ci fib]
+26.5 +24.6 89 +37 +38 очень
душно
1007.4 1003.3
12 14.11 штиль 0 10 км 5/3 540 м
[Cu med, cong Ac trans Ci fib]
+24.8 +23.8 94 +34 +34 очень
душно
1009.1 1005.0 +33.8
15 14.11 штиль 0 10 км 5/3 540 м
[Cu med, cong Ci fib]
+24.1 +23.6 97 +33 +33 очень
душно
1009.5 1005.4
18 14.11 штиль 0 10 км 6/4 540 м
[Cu med, cong Ac trans Ci sp]
+23.7 +23.2 97 +32 +32 очень
душно
1008.8 1004.7
21 14.11 штиль 0 10 км 6/4 540 м
[Cu med, cong Ac trans Ci sp]
+23.2 +22.8 98 +32 +32 очень
душно
1009.2 1005.1
00 15.11 З 1 10 км 6/4 540 м
[Cu med, cong Ac trans Ci fib]
+29.0 +24.7 78 +41 +46 опасность
перегрева
1011.1 1007.0 +23.4
03 15.11 З 1 8000 м слабый дождь 8/5 500 м
[Cb cap Ac trans Ci fib]
+27.3 +26.8 97 +42 +50 опасность
перегрева
1010.1 1006.0 4
06 15.11 штиль 0 9000 м в посл. час дождь {гроза} 9/5 500 м
[Cb cap As op Ci fib]
+27.8 +26.9 95 +44 +48 опасность
перегрева
1008.3 1004.2 3
09 15.11 З 1 9000 м {гроза} 9/5 500 м
[Cb cap As op Ci fib]
+27.2 +26.3 95 +41 +41 опасность
перегрева
1009.1 1005.0
12 15.11 штиль 0 10 км {гроза} 6/4 500 м
[Cu med, cong Ac trans Ci fib]
+25.2 +24.8 98 +36 +36 очень
душно
1011.0 1006.9 +32.4
15 15.11 штиль 0 10 км 6/4 500 м
[Cu med, cong Ac trans Ci fib]
+24.4 +24.0 98 +34 +34 очень
душно
1010.9 1006.8
18 15.11 штиль 0 10 км 6/4 500 м
[Cu med, cong Ac trans Ci fib]
+23.4 +23.0 98 +33 +33 очень
душно
1009.3 1005.2
21 15.11 штиль 0 10 км 8/4 500 м
[Cu med, cong Ac trans Ci fib]
+23.4 +23.2 99 +33 +33 очень
душно
1010.1 1006.0
00 16.11 З 2 10 км в посл. час дождь 9/4 300 м
[Cu med, cong As op Ci fib]
+26.4 +25.2 93 +38 +41 очень
душно
1011.8 1007.7 +23.4 2
03 16.11 штиль 0 8000 м гроза, ливневой дождь 8/5 500 м
[Cb cap Ac As Ci fib]
+30.1 +25.8 78 +45 +54 опасность
перегрева
1010.4 1006.3 0.0
06 16.11 З 2 10 км {гроза, дождь} 8/5 500 м
[Cb cap Ac As Ci fib]
+29.4 +25.0 77 +42 +46 опасность
перегрева
1008.0 1003.9 0.0
09 16.11 штиль 0 10 км 8/4 500 м
[Cu med, cong Ac As Ci fib]
+28.4 +25.1 82 +41 +41 опасность
перегрева
1008.7 1004.6
12 16.11 штиль 0 10 км 9/4 500 м
[Cu med, cong Ac As Ci fib]
+26.0 +24.8 93 +37 +37 очень
душно
1010.9 1006.8 +31.8
15 16.11 штиль 0 10 км 6/4 500 м
[Cu med, cong Ac trans Ci fib]
+24.5 +24.0 97 +34 +34 очень
душно
1010.4 1006.3
18 16.11 штиль 0 10 км 6/4 500 м
[Cu med, cong Ac trans Ci fib]
+23.6 +23.2 98 +32 +32 очень
душно
1009.3 1005.2
21 16.11 штиль 0 10 км {дождь} 8/4 500 м
[Cu med, cong Ac As Ci fib]
+23.6 +23.4 99 +32 +32 очень
душно
1009.5 1005.4 2
00 17.11 штиль 0 10 км {дождь} 9/5 300 м
[Cu med, cong Ac trans Ci fib]
+28.1 +24.6 81 +40 +43 очень
душно
1011.5 1007.4 +23.8 0.0
03 17.11 штиль 0 10 км 8/5 540 м
[Cu med, cong Ac trans Ci fib]
+32.5 +25.5 67 +47 +56 опасность
перегрева
1009.8 1005.7
06 17.11 СЗ 3 10 км 9/6 540 м
[Cu med, cong Ac trans Ci fib]
+31.1 +26.0 74 +46 +49 опасность
перегрева
1008.1 1004.0

 

Местоположение метеостанции Golea (Индонезия): широта 1.82 долгота 127.83 высота над уровнем моря 8 м.

В архиве по умолчанию представлена погода в Golea за последнюю неделю. Архивные данные за месяц целиком и за предыдущие месяцы, начиная с января 2011 года, Вы можете получить, выбрав интересующий диапазон дат из раскрывающегося списка и нажав кнопку "Ввод!".


*Определитесь, кто Вы:
робот инопланетянин человек

Внимание! Время в таблицах - всемирное. Для получения местного времени необходимо прибавить поправку, которая в Golea равна 8 ч.

Смотрите также архив погоды в соседних городах и на ближайших метеорологических станциях:

Погода в Ternate (Индонезия) (128 км)
Погода в Labuha (Индонезия) (275 км)
Погода в Bitung (Индонезия) (298 км)
Погода в Menado (Индонезия) (326 км)
Погода в Sorong-Jefman Airport (Индонезия) (476 км)
Погода в Sanana (Индонезия) (479 км)
Погода в Gorontalo (Индонезия) (550 км)
Погода в General Santos (Филиппины) (561 км)
Погода в Namlea (Индонезия) (570 км)
Погода в Amahai (Индонезия) (587 км)

Пояснения к столбцам:

Ветер - указаны скорость ветра в м/с - средняя за 10 мин, порывы в срок и между сроками (в фигурных скобках) и направление, откуда дует ветер: С - северный, СВ - северо-восточный, В - восточный, ЮВ - юго-восточный, Ю - южный, ЮЗ - юго-западный, З - западный, СЗ - северо-западный.
Видимость - горизонтальная дальность видимости в метрах или километрах. При видимости от 1 до 10 км при отсутствии осадков обычно наблюдается дымка, при ухудшении видимости до 1 км и менее - туман. В сухую погоду видимость может ухудшаться дымом, пылью или мглою.
Явления - указаны атмосферные явления, наблюдавшиеся в срок или в последний час перед сроком; фигурными скобками обозначены явления, наблюдавшиеся между сроками (за 1-3 часа до срока); квадратными скобками обозначены град или гололедные отложения с указанием их диаметра в мм.
Облачность - указаны через наклонную черту общая и нижняя облачность в баллах и высота нижней границы облаков в метрах; квадратными скобками обозначены формы облаков: Ci - перистые, Cs - перисто-слоистые, Cc - перисто-кучевые, Ac - высококучевые, As - высокослоистые, Sc - слоисто-кучевые, Ns - слоисто-дождевые, Cu - кучевые, Cb - кучево-дождевые. Подробнее классификацию облаков см. в Атласе облаков (PDF).
T - Температура воздуха - температура, измеренная на высоте 2 м над землей.
Td - Температура точки росы - температура, при понижении до которой содержащийся в воздухе водяной пар достигнет насыщения.
f - Относительная влажность воздуха - влажноcть воздуха, измеренная на высоте 2 м над землей.
Te - Эффективная температура - температура, которую ощущает одетый по сезону человек в тени. Характеристика душности погоды. При расчете учитывается влияние влажности воздуха и скорости ветра на теплоощущения человека.
Tes - Эффективная температура на солнце - температура, которую ощущает человек, с поправкой на солнечный нагрев. Характеристика знойности погоды. Зависит от высоты солнца над горизонтом, облачности и скорости ветра. Ночью, в пасмурную погоду, а также при ветре 12 м/с и более поправка равна нулю.
P - Атмосферное давление - приведенное к уровню моря атмосферное давление.
Po - Атмосферное давление - измеренное на уровне метеостанции атмосферное давление.
Tmin - Минимальная температура - минимум температуры воздуха на высоте 2 м над землей.
Tmax - Максимальная температура - максимум температуры воздуха на высоте 2 м над землей.
R - Количество осадков - Количество выпавших осадков за период времени, мм. При наведении курсора мыши на число - период времени, за который выпало указанное количество осадков.
R24 - Количество осадков - Количество выпавших осадков за 24 часа, мм.
S - Снежный покров - Высота снежного покрова, см. При наведении курсора мыши на число - состояние снежного покрова и степень покрытия местности в баллах.